Location: Bethera
(33.2010°N, 79.7880°W)
Time: 19:48:16
(UTC-05:00)

Daily predictions for brighter satellites

Satellite Brightness Start Highest point End
(mag) Time Altitude Azimuth Time Altitude Azimuth Time Altitude Azimuth
AQUARIUS 4.4 17:31:04 10° SSE 17:35:22 47° ENE 17:39:41 10° N
USA 32 4.0 17:30:25 10° S 17:35:35 67° E 17:40:45 10° N
NOSS 3-3 (A) 4.1 17:29:37 10° SSW 17:35:36 61° ESE 17:41:57 10° NE
NOSS 3-3 (C) 4.1 17:29:44 10° SSW 17:35:42 60° ESE 17:42:02 10° NE
ISS -0.7 17:36:38 10° WNW 17:38:13 13° NNW 17:39:48 10° N
Meteor 2-19 Rocket 4.5 17:34:31 10° N 17:40:30 59° E 17:46:26 10° SSE
Cosmos 1346 Rocket 4.1 17:37:46 10° SE 17:40:45 21° E 17:43:44 10° NE
SL-8 Rocket 4.0 17:35:57 10° N 17:42:05 69° E 17:48:12 10° SSE
IDEFIX/ARIANE 42P 2.6 17:38:30 10° SSE 17:43:37 61° ENE 17:48:43 10° N
CORIOLIS 4.3 17:38:48 10° SSE 17:44:04 54° ENE 17:49:19 10° N
Cosmos 1844 4.0 17:39:36 10° SSW 17:45:08 72° WNW 17:50:42 10° NNE
ATLAS 2AS CENTAUR R/B 3.1 17:40:45 10° NNW 17:48:34 53° NE 17:55:48 10° SE
ASTRO F (AKARI) 4.4 17:45:54 10° NNE 17:48:58 52° E 17:52:03 10° S
Cosmos 494 Rocket 4.4 17:44:04 10° N 17:49:00 41° ENE 17:53:56 10° SE
Cosmos 1455 Rocket 3.3 17:46:45 10° N 17:51:02 49° E 17:55:19 10° SSE
BREEZE-M DEB (TANK) 3.2 17:46:03 10° NW 17:51:53 79° NE 17:55:29 10° SE
SKYMED 2 4.3 17:48:06 10° NNE 17:52:04 34° E 17:56:01 10° SSE
CZ-3B DEB 2.7 17:50:13 10° WSW 17:53:16 41° NNW 18:00:18 10° NE
Cosmos 2366 rocket 4.1 17:47:04 10° N 17:53:22 62° E 17:59:33 10° SSE
KM-V1 4.2 17:52:57 10° WSW 17:55:08 30° S 17:56:45 12° ESE
MSX 3.9 17:50:44 10° SSE 17:56:18 54° ENE 18:01:53 10° N
Cosmos 1959 Rocket 4.5 17:50:53 10° N 17:57:05 77° E 18:03:19 10° S
Delta 2 Rocket 3.5 17:53:48 10° WSW 17:57:28 59° SSE 18:00:59 14° E
Cosmos 2218 Rocket 4.0 17:51:43 10° N 17:58:00 78° E 18:04:11 10° S
CZ-4 R/B 2.1 17:56:27 10° S 18:00:36 60° W 18:04:44 10° NNW
SMAP 3.1 17:56:50 10° SSE 18:01:30 85° W 18:06:10 10° NNW
Cosmos 2278 Rocket 2.2 17:55:58 10° SSW 18:01:36 89° WNW 18:07:17 10° NNE
Thor Agena Rocket 4.3 17:59:05 10° N 18:04:11 57° WNW 18:09:20 10° SSW
Cosmos 1238 Rocket 2.9 18:02:20 10° SSW 18:05:14 52° W 18:08:08 10° N
SJ-12 4.5 18:01:49 10° S 18:05:51 62° W 18:09:55 10° NNW
SL-24 DEB 4.3 18:02:14 10° NNE 18:06:56 63° E 18:11:33 10° S
CZ-2C R/B 2.7 18:02:48 10° S 18:07:42 73° WSW 18:12:46 10° NNW
OTV 4 1.0 18:05:11 10° WNW 18:08:09 57° SSW 18:11:02 10° SE
MONITOR-E 4.3 18:07:39 10° SSE 18:10:46 56° ENE 18:13:54 10° N
Cosmos 1975 2.9 18:09:23 10° N 18:13:22 56° E 18:17:19 10° SSE
Meteor 1-12 Rocket 4.2 18:08:31 10° N 18:14:21 76° E 18:20:15 10° SSE
Cosmos 2251 Rocket 3.5 18:10:21 10° NNW 18:15:43 89° ENE 18:21:01 10° SSE
COSMOS 2441 4.3 18:14:23 10° SSE 18:19:13 75° ENE 18:24:06 10° N
SL-27 R/B 3.8 18:18:39 10° NNW 18:22:09 44° WSW 18:25:36 10° S
Genesis I 4.3 18:20:20 10° N 18:23:19 24° NE 18:23:19 24° NE
TIMED 4.5 18:22:32 10° S 18:26:50 63° ESE 18:29:59 18° NNE
Cosmos 1484 Rocket 2.5 18:23:10 10° SSE 18:26:55 74° ENE 18:30:39 10° N
Meteor 1-13 Rocket 4.2 18:23:41 10° S 18:29:13 65° E 18:34:55 10° NNE
ORS 1 (USA 231) 4.5 18:26:59 10° WNW 18:30:12 83° NNE 18:31:15 39° ESE
Cosmos 2082 Rocket 2.9 18:26:21 10° N 18:31:19 30° ENE 18:33:41 22° ESE
NOSS 2-1 (D) 3.3 18:28:17 10° SSW 18:32:02 57° ESE 18:33:30 33° NE
DMSP B5D1-3 4.4 18:27:08 10° NNE 18:32:17 75° ESE 18:37:24 10° S
NOSS 2-1 (C) 3.3 18:28:59 10° SSW 18:32:44 56° ESE 18:34:09 34° NE
Cosmos 1833 Rocket 3.5 18:28:13 10° N 18:32:54 26° ENE 18:33:05 26° ENE
Cosmos 1743 3.8 18:35:15 27° ESE 18:35:15 27° ESE 18:37:31 10° SSE
Meteor 2-21 4.3 18:28:46 10° N 18:34:57 72° E 18:41:02 10° SSE
COSMO-SKYMED 1 3.1 18:35:51 10° N 18:40:07 59° WNW 18:44:23 10° SSW
Cosmos 1500 3.4 18:39:40 10° N 18:43:29 71° W 18:47:18 10° S
GRACE-2 4.4 18:43:14 10° S 18:45:58 59° W 18:46:42 40° NNW
Nadezhda 3 Rocket 4.0 18:40:02 10° S 18:46:12 82° W 18:52:29 10° N
GRACE-1 4.5 18:43:39 10° S 18:46:24 56° W 18:47:12 37° NNW
Meteor 1-28 Rocket 3.2 18:45:29 23° N 18:47:45 84° WNW 18:51:32 10° SSW
NOSS 2-1 (E) 3.1 18:47:26 10° SSW 18:51:16 88° SE 18:52:08 54° NNE
Timation 1 Rocket 4.3 18:45:21 10° SSW 18:51:18 89° WNW 18:55:27 21° NNE
GEOS 3 Rocket 3.6 18:53:31 34° ESE 18:55:32 57° NE 19:00:32 10° NNW
Meteor 2-4 Rocket 3.5 18:50:51 10° S 18:56:11 63° E 18:58:30 33° NNE
Meteor 2-14 Rocket 4.3 18:50:48 10° N 18:56:58 80° E 19:03:06 10° S
Tiangong 1 2.7 18:55:04 10° W 18:57:12 26° NW 18:57:12 26° NW
OAO 1 4.4 18:54:33 10° W 19:00:03 75° N 19:01:18 53° ENE
Cosmos 2056 Rocket 3.6 18:55:13 10° S 19:00:26 52° ESE 19:00:49 51° E
Cosmos 1025 Rocket 2.9 19:02:33 10° S 19:06:55 89° WNW 19:07:27 68° N
Cosmos 921 Rocket 4.1 19:08:43 10° SW 19:12:43 42° WNW 19:14:34 27° NNW
ATLAS 3B CENTAUR R/B 3.4 18:54:52 10° W 19:13:00 66° S 19:15:57 40° ESE
COSMOS 2487 3.6 19:10:15 10° NNW 19:13:00 41° WNW 19:13:00 41° WNW
Cosmos 1624 Rocket 3.8 19:09:03 10° S 19:14:13 79° ESE 19:14:32 75° ENE
Cosmos 1371 Rocket 4.1 19:13:18 10° SSW 19:18:38 75° WNW 19:20:09 47° N
Cosmos 1934 Rocket 4.3 19:42:07 10° NNW 19:48:13 63° W 19:54:25 10° S
Cosmos 2082 Rocket 3.8 20:10:24 10° NW 20:15:16 30° WSW 20:15:50 30° WSW
Cosmos 1833 Rocket 4.4 20:11:45 10° NW 20:14:56 28° WNW 20:14:56 28° WNW
